This is the latest recevied weather packets stored in our database for station/object LINCON. If no packets are shown the sender has not sent any weather packets the latest 10 day(s).
| Time | Temp. | Humidity | Pressure | Rain* | Wind** | Luminosity | Snow |
|---|---|---|---|---|---|---|---|
| 1777140000 | 21.67° C | 24% | 1007.1 hPa | 0 mm | - | - | - |
| 1777139700 | 21.11° C | 23% | 1007.1 hPa | 0 mm | - | - | - |
| 1777139400 | 20° C | 23% | 1007.2 hPa | 0 mm | - | - | - |
| 1777139100 | 20° C | 19% | 1007.2 hPa | 0 mm | - | - | - |
| 1777138799 | 20.56° C | 18% | 1007.3 hPa | 0 mm | - | - | - |
| 1777138501 | 20.56° C | 22% | 1007.2 hPa | 0 mm | - | - | - |
| 1777138200 | 20° C | 22% | 1007.2 hPa | 0 mm | - | - | - |
| 1777137899 | 20° C | 22% | 1007.3 hPa | 0 mm | - | - | - |
| 1777137599 | 20° C | 22% | 1007.2 hPa | 0 mm | - | - | - |
| 1777137299 | 20° C | 20% | 1007.3 hPa | 0 mm | - | - | - |
| 1777136999 | 19.44° C | 24% | 1007.3 hPa | 0 mm | - | - | - |
| 1777136699 | 19.44° C | 23% | 1007.3 hPa | 0 mm | - | - | - |
| 1777136399 | 20° C | 24% | 1007.3 hPa | 0 mm | - | - | - |
| 1777136100 | 19.44° C | 28% | 1007.3 hPa | 0 mm | - | - | - |
| 1777135799 | 19.44° C | 26% | 1007.3 hPa | 0 mm | - | - | - |
| 1777135499 | 19.44° C | 24% | 1007.4 hPa | 0 mm | - | - | - |
| 1777135199 | 20.56° C | 29% | 1007.4 hPa | 0 mm | - | - | - |
| 1777134900 | 20° C | 26% | 1007.4 hPa | 0 mm | - | - | - |
| 1777134599 | 20° C | 28% | 1007.4 hPa | 0 mm | - | - | - |
| 1777134299 | 20° C | 30% | 1007.4 hPa | 0 mm | - | - | - |
| 1777133999 | 20° C | 32% | 1007.5 hPa | 0 mm | - | - | - |
| 1777133699 | 20.56° C | 30% | 1007.4 hPa | 0 mm | - | - | - |
| 1777133399 | 20.56° C | 29% | 1007.5 hPa | 0 mm | - | - | - |
| 1777133099 | 20° C | 37% | 1007.6 hPa | 0 mm | - | - | - |
| 1777132800 | 19.44° C | 35% | 1007.6 hPa | 0 mm | - | - | - |
* Rain latest hour (hover to see other rain measurements)
** Current wind speed in m/s (hover to see current wind gust speed)